time, Switch, Flow(0), Analog(2)
yyyy/mm/dd HH:MM:SS.fff, True=FILTERED|False=TOTAL, L/min, V
2023/06/08 14:00:05.291, True, 2.022, 0.148547
2023/06/08 14:00:05.795, True, 1.658, 0.150225
2023/06/08 14:00:06.299, True, 1.660, 0.151369
2023/06/08 14:00:06.795, True, 1.683, 0.152056
2023/06/08 14:00:07.299, True, 1.660, 0.150530
2023/06/08 14:00:07.803, True, 1.656, 0.149996
2023/06/08 14:00:08.299, True, 1.685, 0.148775
2023/06/08 14:00:08.802, True, 1.661, 0.150607
2023/06/08 14:00:09.307, True, 1.655, 0.151217
2023/06/08 14:00:09.803, True, 1.685, 0.150072
2023/06/08 14:00:10.307, True, 1.990, 0.149233
2023/06/08 14:00:10.811, True, 1.659, 0.150607
2023/06/08 14:00:11.307, True, 1.684, 0.149310
2023/06/08 14:00:11.811, True, 1.658, 0.151980
2023/06/08 14:00:12.315, True, 1.659, 0.148928
2023/06/08 14:00:12.811, True, 1.684, 0.152743
2023/06/08 14:00:13.315, True, 1.658, 0.152743
2023/06/08 14:00:13.819, True, 1.658, 0.149691
2023/06/08 14:00:14.315, True, 1.685, 0.151369
2023/06/08 14:00:14.819, True, 1.989, 0.150912
2023/06/08 14:00:15.323, True, 1.658, 0.153964
2023/06/08 14:00:15.819, True, 1.686, 0.148318
2023/06/08 14:00:16.323, True, 1.657, 0.151217
2023/06/08 14:00:16.819, True, 1.685, 0.152132
2023/06/08 14:00:17.323, True, 1.989, 0.149767
2023/06/08 14:00:17.827, True, 1.658, 0.151522
2023/06/08 14:00:18.323, True, 1.685, 0.147631
2023/06/08 14:00:18.827, True, 1.658, 0.150378
2023/06/08 14:00:19.331, True, 1.990, 0.150072
2023/06/08 14:00:19.827, True, 1.685, 0.149157
2023/06/08 14:00:20.331, True, 1.658, 0.151751
2023/06/08 14:00:20.835, True, 1.991, 0.151827
2023/06/08 14:00:21.339, True, 1.657, 0.152209
2023/06/08 14:00:21.835, True, 1.685, 0.150149
2023/06/08 14:00:22.339, True, 1.658, 0.151293
2023/06/08 14:00:22.834, True, 1.684, 0.149386
2023/06/08 14:00:23.339, True, 1.990, 0.151827
2023/06/08 14:00:23.843, True, 1.658, 0.150378
2023/06/08 14:00:24.346, True, 1.658, 0.150301
2023/06/08 14:00:24.843, True, 2.021, 0.150607
2023/06/08 14:00:25.347, True, 1.658, 0.150683
2023/06/08 14:00:25.851, True, 1.658, 0.151446
2023/06/08 14:00:26.347, True, 1.685, 0.150988
2023/06/08 14:00:26.851, True, 1.658, 0.152209
2023/06/08 14:00:27.355, True, 1.658, 0.151293
2023/06/08 14:00:27.851, True, 1.685, 0.151751
2023/06/08 14:00:28.355, True, 1.658, 0.151675
2023/06/08 14:00:28.859, True, 1.658, 0.150530
2023/06/08 14:00:29.355, True, 1.685, 0.149462
2023/06/08 14:00:29.859, True, 1.661, 0.150072
2023/06/08 14:00:30.355, True, 1.682, 0.150759
2023/06/08 14:00:30.859, True, 1.658, 0.150607
2023/06/08 14:00:31.363, True, 1.658, 0.149386
2023/06/08 14:00:31.859, True, 2.022, 0.149691
2023/06/08 14:00:32.362, True, 1.989, 0.149767
2023/06/08 14:00:32.867, True, 1.658, 0.152895
2023/06/08 14:00:33.363, True, 2.026, 0.151675
2023/06/08 14:00:33.866, True, 1.655, 0.150072
2023/06/08 14:00:34.371, True, 1.658, 0.149081
2023/06/08 14:00:34.867, True, 1.685, 0.149310
2023/06/08 14:00:35.371, True, 1.658, 0.150149
2023/06/08 14:00:35.875, True, 1.658, 0.151675
2023/06/08 14:00:36.371, True, 1.689, 0.150301
2023/06/08 14:00:36.875, True, 1.654, 0.150912
2023/06/08 14:00:37.379, True, 1.990, 0.153124
2023/06/08 14:00:37.883, True, 1.660, 0.151522
2023/06/08 14:00:38.379, True, 1.683, 0.150149
2023/06/08 14:00:38.883, True, 1.989, 0.148470
2023/06/08 14:00:39.387, True, 1.658, 0.152590
2023/06/08 14:00:39.883, True, 1.685, 0.150072
2023/06/08 14:00:40.387, True, 1.658, 0.151141
2023/06/08 14:00:40.891, True, 1.658, 0.151293
2023/06/08 14:00:41.387, True, 1.685, 0.153658
2023/06/08 14:00:41.891, True, 1.658, 0.151598
2023/06/08 14:00:42.395, True, 1.660, 0.154192
2023/06/08 14:00:42.891, True, 1.682, 0.154040
2023/06/08 14:00:43.395, True, 1.658, 0.153735
2023/06/08 14:00:43.899, True, 1.658, 0.154192
2023/06/08 14:00:44.395, True, 2.022, 0.155032
2023/06/08 14:00:44.899, True, 1.658, 0.157549
2023/06/08 14:00:45.403, True, 1.658, 0.157092
2023/06/08 14:00:45.898, True, 1.348, 0.156023
2023/06/08 14:00:46.403, True, 1.989, 0.157244
2023/06/08 14:00:46.906, True, 1.661, 0.157626
2023/06/08 14:00:47.403, True, 1.682, 0.157168
2023/06/08 14:00:47.907, True, 1.990, 0.158694
2023/06/08 14:00:48.411, True, 1.659, 0.158694
2023/06/08 14:00:48.907, True, 1.684, 0.159075
2023/06/08 14:00:49.411, True, 1.990, 0.160449
2023/06/08 14:00:49.915, True, 1.658, 0.158770
2023/06/08 14:00:50.411, True, 1.687, 0.160983
2023/06/08 14:00:50.915, True, 1.987, 0.159533
2023/06/08 14:00:51.411, True, 1.685, 0.161898
2023/06/08 14:00:51.914, True, 1.658, 0.162737
2023/06/08 14:00:52.419, True, 1.658, 0.160754
2023/06/08 14:00:52.915, True, 2.022, 0.162356
2023/06/08 14:00:53.419, True, 1.658, 0.163195
2023/06/08 14:00:53.923, True, 1.658, 0.160983
2023/06/08 14:00:54.418, True, 1.685, 0.160906
2023/06/08 14:00:54.922, True, 1.990, 0.161288
2023/06/08 14:00:55.426, True, 1.660, 0.163043
2023/06/08 14:00:55.922, True, 2.019, 0.164034
2023/06/08 14:00:56.426, True, 1.658, 0.160830
2023/06/08 14:00:56.931, True, 1.658, 0.161822
2023/06/08 14:00:57.427, True, 2.022, 0.162051
2023/06/08 14:00:57.931, True, 1.660, 0.161059
2023/06/08 14:00:58.434, True, 1.656, 0.162814
2023/06/08 14:00:58.931, True, 1.685, 0.160525
2023/06/08 14:00:59.434, True, 1.660, 0.161975
2023/06/08 14:00:59.939, True, 1.990, 0.162203
2023/06/08 14:01:00.435, True, 1.683, 0.164492
2023/06/08 14:01:00.939, True, 1.660, 0.164721
2023/06/08 14:01:01.443, True, 1.658, 0.162585
2023/06/08 14:01:01.938, True, 1.683, 0.163348
2023/06/08 14:01:02.442, True, 1.992, 0.162203
2023/06/08 14:01:02.946, True, 1.659, 0.162966
2023/06/08 14:01:03.451, True, 1.655, 0.163882
2023/06/08 14:01:03.947, True, 1.684, 0.165637
2023/06/08 14:01:04.451, True, 1.661, 0.162966
2023/06/08 14:01:04.947, True, 1.682, 0.163500
2023/06/08 14:01:05.451, True, 1.657, 0.162966
2023/06/08 14:01:05.954, True, 1.659, 0.162280
2023/06/08 14:01:06.451, True, 1.685, 0.162585
2023/06/08 14:01:06.955, True, 1.990, 0.160678
2023/06/08 14:01:07.459, True, 1.657, 0.164263
2023/06/08 14:01:07.955, True, 1.685, 0.162966
2023/06/08 14:01:08.459, True, 1.990, 0.163348
2023/06/08 14:01:08.962, True, 1.658, 0.162356
2023/06/08 14:01:09.459, True, 1.685, 0.163424
2023/06/08 14:01:09.963, True, 1.660, 0.165332
2023/06/08 14:01:10.467, True, 1.656, 0.162127
2023/06/08 14:01:10.971, True, 1.658, 0.163500
2023/06/08 14:01:11.467, True, 2.022, 0.163729
2023/06/08 14:01:11.971, True, 1.658, 0.163882
2023/06/08 14:01:12.474, True, 1.660, 0.163195
2023/06/08 14:01:12.971, True, 2.020, 0.164416
2023/06/08 14:01:13.475, True, 1.658, 0.162280
2023/06/08 14:01:13.971, True, 1.687, 0.163119
2023/06/08 14:01:14.475, True, 1.986, 0.162585
2023/06/08 14:01:14.979, True, 1.658, 0.165484
2023/06/08 14:01:15.483, True, 1.658, 0.162356
2023/06/08 14:01:15.979, True, 2.022, 0.163119
2023/06/08 14:01:16.482, True, 1.660, 0.162737
2023/06/08 14:01:16.987, True, 1.656, 0.161822
2023/06/08 14:01:17.483, True, 2.022, 0.162966
2023/06/08 14:01:17.987, True, 1.660, 0.163577
2023/06/08 14:01:18.483, True, 1.683, 0.163806
2023/06/08 14:01:18.986, True, 1.993, 0.162966
2023/06/08 14:01:19.491, True, 1.655, 0.162280
2023/06/08 14:01:19.987, True, 2.025, 0.161364
2023/06/08 14:01:20.491, True, 1.655, 0.162127
2023/06/08 14:01:20.995, True, 1.659, 0.160601
2023/06/08 14:01:21.491, True, 1.683, 0.162127
2023/06/08 14:01:21.995, True, 1.658, 0.164797
2023/06/08 14:01:22.499, True, 1.658, 0.163577
2023/06/08 14:01:23.003, True, 1.658, 0.163577
2023/06/08 14:01:23.499, True, 2.022, 0.160754
2023/06/08 14:01:24.003, True, 1.658, 0.162509
2023/06/08 14:01:24.507, True, 1.328, 0.165255
2023/06/08 14:01:25.003, True, 2.019, 0.161669
2023/06/08 14:01:25.507, True, 1.659, 0.162127
2023/06/08 14:01:26.010, True, 1.657, 0.163729
2023/06/08 14:01:26.507, True, 1.685, 0.161440
2023/06/08 14:01:27.011, True, 1.659, 0.164416
2023/06/08 14:01:27.515, True, 1.657, 0.161746
2023/06/08 14:01:28.011, True, 1.685, 0.161975
2023/06/08 14:01:28.515, True, 1.989, 0.160983
2023/06/08 14:01:29.011, True, 1.685, 0.164340
2023/06/08 14:01:29.515, True, 1.658, 0.162890
2023/06/08 14:01:30.019, True, 1.658, 0.162280
2023/06/08 14:01:30.523, True, 1.658, 0.161975
2023/06/08 14:01:31.019, True, 1.685, 0.164111
2023/06/08 14:01:31.523, True, 1.658, 0.164645
2023/06/08 14:01:32.026, True, 1.990, 0.162127
2023/06/08 14:01:32.523, True, 1.685, 0.164034
2023/06/08 14:01:33.027, True, 1.988, 0.163806
2023/06/08 14:01:33.530, True, 1.993, 0.161746
2023/06/08 14:01:34.027, True, 1.684, 0.161288
2023/06/08 14:01:34.531, True, 1.659, 0.162432
2023/06/08 14:01:35.034, True, 1.656, 0.161364
2023/06/08 14:01:35.531, True, 2.021, 0.162432
2023/06/08 14:01:36.034, True, 1.326, 0.161135
2023/06/08 14:01:36.538, True, 1.660, 0.162661
2023/06/08 14:01:37.043, True, 1.657, 0.162737
2023/06/08 14:01:37.539, True, 1.684, 0.161059
2023/06/08 14:01:38.042, True, 1.658, 0.162966
2023/06/08 14:01:38.546, True, 1.658, 0.160449
2023/06/08 14:01:39.042, True, 1.685, 0.161517
2023/06/08 14:01:39.547, True, 1.990, 0.162432
2023/06/08 14:01:40.051, True, 1.658, 0.163195
2023/06/08 14:01:40.546, True, 1.684, 0.164492
2023/06/08 14:01:41.050, True, 1.659, 0.162890
2023/06/08 14:01:41.555, True, 1.988, 0.161669
2023/06/08 14:01:42.059, True, 1.658, 0.162356
2023/06/08 14:01:42.555, True, 1.348, 0.162356
2023/06/08 14:01:43.059, True, 1.990, 0.162280
2023/06/08 14:01:43.563, True, 1.660, 0.159915
2023/06/08 14:01:44.059, True, 1.682, 0.164416
2023/06/08 14:01:44.563, True, 1.661, 0.160678
2023/06/08 14:01:45.067, True, 1.655, 0.160601
2023/06/08 14:01:45.563, True, 1.685, 0.161364
2023/06/08 14:01:46.066, True, 1.989, 0.161746
2023/06/08 14:01:46.562, True, 1.685, 0.160601
2023/06/08 14:01:47.066, True, 1.658, 0.162509
2023/06/08 14:01:47.570, True, 1.658, 0.160906
2023/06/08 14:01:48.066, True, 2.022, 0.161212
2023/06/08 14:01:48.570, True, 1.658, 0.160220
2023/06/08 14:01:49.074, True, 1.993, 0.163043
2023/06/08 14:01:49.571, True, 1.682, 0.161822
2023/06/08 14:01:50.074, True, 1.658, 0.160296
2023/06/08 14:01:50.579, True, 1.658, 0.161975
2023/06/08 14:01:51.075, True, 1.685, 0.160983
2023/06/08 14:01:51.578, True, 1.990, 0.161669
2023/06/08 14:01:52.082, True, 1.658, 0.160143
2023/06/08 14:01:52.587, True, 1.658, 0.159304
2023/06/08 14:01:53.082, True, 1.685, 0.160983
2023/06/08 14:01:53.586, True, 1.659, 0.161746
2023/06/08 14:01:54.090, True, 1.657, 0.161440
2023/06/08 14:01:54.595, True, 1.658, 0.161212
2023/06/08 14:01:55.090, True, 2.021, 0.159609
2023/06/08 14:01:55.595, True, 1.658, 0.163043
2023/06/08 14:01:56.099, True, 1.658, 0.158846
2023/06/08 14:01:56.594, True, 1.684, 0.160983
2023/06/08 14:01:57.099, True, 1.658, 0.162661
2023/06/08 14:01:57.594, True, 1.684, 0.162737
2023/06/08 14:01:58.098, True, 1.659, 0.161288
2023/06/08 14:01:58.602, True, 1.660, 0.162585
2023/06/08 14:01:59.098, True, 2.018, 0.161593
2023/06/08 14:01:59.602, True, 1.658, 0.162585
2023/06/08 14:02:00.106, True, 1.660, 0.161135
2023/06/08 14:02:00.610, True, 1.656, 0.160983
2023/06/08 14:02:01.106, True, 2.021, 0.160754
2023/06/08 14:02:01.610, True, 1.661, 0.160220
2023/06/08 14:02:02.107, True, 1.682, 0.161440
2023/06/08 14:02:02.610, True, 1.658, 0.160678
2023/06/08 14:02:03.114, True, 1.658, 0.159686
2023/06/08 14:02:03.610, True, 1.685, 0.161822
2023/06/08 14:02:04.114, True, 1.658, 0.162051
2023/06/08 14:02:04.618, True, 1.990, 0.162509
2023/06/08 14:02:05.122, True, 1.658, 0.158923
2023/06/08 14:02:05.618, True, 2.021, 0.160220
2023/06/08 14:02:06.122, True, 1.658, 0.160678
2023/06/08 14:02:06.618, True, 1.685, 0.159457
2023/06/08 14:02:07.122, True, 1.658, 0.158694
2023/06/08 14:02:07.626, True, 1.658, 0.160601
2023/06/08 14:02:08.122, True, 1.685, 0.159457
2023/06/08 14:02:08.626, True, 1.657, 0.159762
2023/06/08 14:02:09.130, True, 1.658, 0.162356
2023/06/08 14:02:09.626, True, 1.685, 0.160754
2023/06/08 14:02:10.130, True, 1.989, 0.162127
2023/06/08 14:02:10.626, True, 1.688, 0.161364
2023/06/08 14:02:11.130, True, 1.655, 0.159609
2023/06/08 14:02:11.634, True, 1.658, 0.158618
2023/06/08 14:02:12.138, True, 1.659, 0.159304
2023/06/08 14:02:12.634, True, 1.685, 0.161822
2023/06/08 14:02:13.138, True, 1.657, 0.160983
2023/06/08 14:02:13.642, True, 1.659, 0.160296
2023/06/08 14:02:14.138, True, 1.685, 0.159304
2023/06/08 14:02:14.642, True, 1.657, 0.161364
2023/06/08 14:02:15.146, True, 1.659, 0.158923
2023/06/08 14:02:15.642, True, 2.021, 0.159075
2023/06/08 14:02:16.146, True, 1.659, 0.159152
2023/06/08 14:02:16.642, True, 1.684, 0.160372
2023/06/08 14:02:17.146, True, 1.992, 0.158770
2023/06/08 14:02:17.650, True, 1.656, 0.161517
2023/06/08 14:02:18.146, True, 2.022, 0.158770
2023/06/08 14:02:18.650, True, 1.658, 0.162051
2023/06/08 14:02:19.154, True, 1.658, 0.158770
2023/06/08 14:02:19.650, True, 1.685, 0.157778
2023/06/08 14:02:20.154, True, 1.658, 0.159152
2023/06/08 14:02:20.658, True, 1.658, 0.160143
2023/06/08 14:02:21.154, True, 1.685, 0.160906
2023/06/08 14:02:21.658, True, 1.658, 0.159380
2023/06/08 14:02:22.162, True, 1.989, 0.158312
2023/06/08 14:02:22.658, True, 1.687, 0.159838
2023/06/08 14:02:23.162, True, 1.656, 0.159991
2023/06/08 14:02:23.666, True, 1.990, 0.162356
2023/06/08 14:02:24.161, True, 1.685, 0.163119
2023/06/08 14:02:24.665, True, 1.658, 0.158923
2023/06/08 14:02:25.169, True, 1.990, 0.157397
2023/06/08 14:02:25.665, True, 1.685, 0.160296
2023/06/08 14:02:26.170, True, 1.658, 0.160067
2023/06/08 14:02:26.674, True, 1.661, 0.159304
2023/06/08 14:02:27.169, True, 1.682, 0.157626
2023/06/08 14:02:27.674, True, 1.990, 0.158465
2023/06/08 14:02:28.178, True, 1.661, 0.159762
2023/06/08 14:02:28.674, True, 1.681, 0.158541
2023/06/08 14:02:29.178, True, 1.989, 0.159686
2023/06/08 14:02:29.682, True, 1.658, 0.159991
2023/06/08 14:02:30.186, True, 1.658, 0.159533
2023/06/08 14:02:30.681, True, 1.684, 0.158465
2023/06/08 14:02:31.186, True, 1.659, 0.158160
2023/06/08 14:02:31.690, True, 1.661, 0.159457
2023/06/08 14:02:32.194, True, 1.656, 0.159915
2023/06/08 14:02:32.690, True, 1.683, 0.159152
2023/06/08 14:02:33.194, True, 1.990, 0.158312
2023/06/08 14:02:33.698, True, 1.658, 0.158236
2023/06/08 14:02:34.194, True, 1.685, 0.159304
2023/06/08 14:02:34.698, True, 1.658, 0.158312
2023/06/08 14:02:35.202, True, 1.989, 0.158083
2023/06/08 14:02:35.698, True, 1.686, 0.160449
2023/06/08 14:02:36.202, True, 1.657, 0.159304
2023/06/08 14:02:36.706, True, 1.658, 0.157778
2023/06/08 14:02:37.202, True, 2.022, 0.158541
2023/06/08 14:02:37.706, True, 1.658, 0.159380
2023/06/08 14:02:38.210, True, 1.994, 0.155413
2023/06/08 14:02:38.706, True, 1.681, 0.160754
2023/06/08 14:02:39.210, True, 1.990, 0.162203
2023/06/08 14:02:39.714, True, 1.659, 0.158694
2023/06/08 14:02:40.210, True, 1.684, 0.157321
2023/06/08 14:02:40.714, True, 1.990, 0.157855
2023/06/08 14:02:41.218, True, 1.658, 0.156710
2023/06/08 14:02:41.714, True, 1.685, 0.155337
2023/06/08 14:02:42.218, True, 1.658, 0.158846
2023/06/08 14:02:42.722, True, 1.989, 0.158389
2023/06/08 14:02:43.218, True, 1.348, 0.157931
2023/06/08 14:02:43.722, True, 1.989, 0.155947
2023/06/08 14:02:44.226, True, 1.658, 0.159609
2023/06/08 14:02:44.730, True, 1.990, 0.157778
2023/06/08 14:02:45.226, True, 1.685, 0.158923
2023/06/08 14:02:45.730, True, 1.990, 0.158312
2023/06/08 14:02:46.234, True, 1.658, 0.159152
2023/06/08 14:02:46.730, True, 1.685, 0.157321
2023/06/08 14:02:47.234, True, 1.658, 0.157321
2023/06/08 14:02:47.730, True, 1.685, 0.158465
2023/06/08 14:02:48.234, True, 1.990, 0.158618
2023/06/08 14:02:48.738, True, 1.326, 0.157549
2023/06/08 14:02:49.234, True, 1.685, 0.158694
2023/06/08 14:02:49.738, True, 1.658, 0.159228
2023/06/08 14:02:50.242, True, 1.990, 0.155032
2023/06/08 14:02:50.738, True, 1.685, 0.157626
2023/06/08 14:02:51.242, True, 1.659, 0.159304
2023/06/08 14:02:51.746, True, 1.988, 0.157549
2023/06/08 14:02:52.242, True, 1.685, 0.159304
2023/06/08 14:02:52.746, True, 1.989, 0.158160
2023/06/08 14:02:53.250, True, 1.658, 0.158465
2023/06/08 14:02:53.746, True, 1.685, 0.155718
2023/06/08 14:02:54.250, True, 1.660, 0.158007
2023/06/08 14:02:54.754, True, 1.656, 0.158541
2023/06/08 14:02:55.250, True, 1.685, 0.158694
2023/06/08 14:02:55.754, True, 1.990, 0.156558
2023/06/08 14:02:56.258, True, 1.658, 0.156481
2023/06/08 14:02:56.754, True, 1.685, 0.157397
2023/06/08 14:02:57.258, True, 1.658, 0.156939
2023/06/08 14:02:57.762, True, 1.658, 0.157702
2023/06/08 14:02:58.258, True, 2.022, 0.157549
2023/06/08 14:02:58.762, True, 1.658, 0.156176
2023/06/08 14:02:59.266, True, 1.658, 0.156023
2023/06/08 14:02:59.762, True, 1.684, 0.157244
2023/06/08 14:03:00.266, True, 1.661, 0.156939
2023/06/08 14:03:00.770, True, 1.655, 0.155489
2023/06/08 14:03:01.266, True, 1.685, 0.158007
2023/06/08 14:03:01.770, True, 1.659, 0.159457
2023/06/08 14:03:02.274, True, 1.989, 0.157321
2023/06/08 14:03:02.770, True, 1.685, 0.154726
2023/06/08 14:03:03.274, True, 1.326, 0.156786
2023/06/08 14:03:03.778, True, 1.658, 0.155718
2023/06/08 14:03:04.273, True, 1.685, 0.160143
2023/06/08 14:03:04.778, True, 1.992, 0.156710
2023/06/08 14:03:05.282, True, 1.656, 0.157549
2023/06/08 14:03:05.778, True, 1.685, 0.158312
2023/06/08 14:03:06.282, True, 1.658, 0.156023
2023/06/08 14:03:06.778, True, 1.685, 0.158236
2023/06/08 14:03:07.282, True, 1.658, 0.157931
2023/06/08 14:03:07.786, True, 1.990, 0.155871
2023/06/08 14:03:08.282, True, 1.684, 0.156939
2023/06/08 14:03:08.786, True, 1.658, 0.156100
2023/06/08 14:03:09.290, True, 1.658, 0.156786
2023/06/08 14:03:09.786, True, 1.685, 0.158541
2023/06/08 14:03:10.290, True, 1.658, 0.158618
2023/06/08 14:03:10.794, True, 1.658, 0.157397
2023/06/08 14:03:11.290, True, 1.685, 0.156252
2023/06/08 14:03:11.794, True, 1.990, 0.158007
2023/06/08 14:03:12.298, True, 1.658, 0.156481
2023/06/08 14:03:12.794, True, 1.685, 0.156863
2023/06/08 14:03:13.298, True, 1.989, 0.158236
2023/06/08 14:03:13.801, True, 1.658, 0.158923
2023/06/08 14:03:14.298, True, 1.684, 0.157244
2023/06/08 14:03:14.802, True, 1.658, 0.156405
2023/06/08 14:03:15.306, True, 1.658, 0.158236
2023/06/08 14:03:15.802, True, 1.684, 0.156405
2023/06/08 14:03:16.306, True, 1.658, 0.158541
2023/06/08 14:03:16.810, True, 1.990, 0.156863
2023/06/08 14:03:17.306, True, 1.685, 0.156405
2023/06/08 14:03:17.809, True, 1.658, 0.155947
2023/06/08 14:03:18.314, True, 1.990, 0.159838
2023/06/08 14:03:18.810, True, 1.685, 0.157015
2023/06/08 14:03:19.314, True, 1.658, 0.154803
2023/06/08 14:03:19.818, True, 1.658, 0.158389
2023/06/08 14:03:20.313, True, 1.685, 0.157015
2023/06/08 14:03:20.818, True, 1.989, 0.156481
2023/06/08 14:03:21.322, True, 1.659, 0.157473
2023/06/08 14:03:21.818, True, 1.684, 0.157244
2023/06/08 14:03:22.322, True, 1.989, 0.157244
2023/06/08 14:03:22.818, True, 1.685, 0.158770
2023/06/08 14:03:23.322, True, 1.659, 0.158618
2023/06/08 14:03:23.826, True, 1.660, 0.158236
2023/06/08 14:03:24.322, True, 1.682, 0.156786
2023/06/08 14:03:24.825, True, 1.991, 0.156329
2023/06/08 14:03:25.330, True, 1.657, 0.156252
2023/06/08 14:03:25.826, True, 1.685, 0.156329
2023/06/08 14:03:26.330, True, 1.991, 0.154726
2023/06/08 14:03:26.834, True, 1.656, 0.155795
2023/06/08 14:03:27.330, True, 1.685, 0.155642
2023/06/08 14:03:27.834, True, 1.328, 0.158083
2023/06/08 14:03:28.337, True, 1.656, 0.154040
2023/06/08 14:03:28.833, True, 2.022, 0.154879
2023/06/08 14:03:29.338, True, 1.659, 0.157015
2023/06/08 14:03:29.834, True, 1.684, 0.155184
2023/06/08 14:03:30.337, True, 1.989, 0.158236
2023/06/08 14:03:30.842, True, 1.658, 0.158541
2023/06/08 14:03:31.338, True, 1.685, 0.157321
2023/06/08 14:03:31.842, True, 1.658, 0.157702
2023/06/08 14:03:32.346, True, 1.990, 0.158312
2023/06/08 14:03:32.842, True, 1.684, 0.153506
2023/06/08 14:03:33.345, True, 1.658, 0.157244
2023/06/08 14:03:33.850, True, 1.658, 0.154269
2023/06/08 14:03:34.346, True, 1.688, 0.155871
2023/06/08 14:03:34.850, True, 1.655, 0.155566
2023/06/08 14:03:35.353, True, 1.990, 0.157702
2023/06/08 14:03:35.850, True, 1.684, 0.156786
2023/06/08 14:03:36.353, True, 1.990, 0.157244
2023/06/08 14:03:36.858, True, 1.658, 0.155642
2023/06/08 14:03:37.354, True, 1.685, 0.155489
2023/06/08 14:03:37.858, True, 1.990, 0.156481
2023/06/08 14:03:38.362, True, 1.658, 0.155413
2023/06/08 14:03:38.858, True, 2.022, 0.155337
2023/06/08 14:03:39.362, True, 1.659, 0.156558
2023/06/08 14:03:39.857, True, 1.684, 0.154498
2023/06/08 14:03:40.361, True, 1.658, 0.155718
2023/06/08 14:03:40.866, True, 1.659, 0.155032
2023/06/08 14:03:41.362, True, 1.688, 0.155489
2023/06/08 14:03:41.865, True, 1.985, 0.157092
2023/06/08 14:03:42.370, True, 1.658, 0.155871
2023/06/08 14:03:42.866, True, 1.685, 0.155566
2023/06/08 14:03:43.370, True, 1.659, 0.155032
2023/06/08 14:03:43.874, True, 1.989, 0.154345
2023/06/08 14:03:44.369, True, 1.684, 0.155566
2023/06/08 14:03:44.874, True, 1.659, 0.155413
2023/06/08 14:03:45.378, True, 1.657, 0.157397
2023/06/08 14:03:45.882, True, 1.989, 0.156023
2023/06/08 14:03:46.378, True, 1.348, 0.155947
2023/06/08 14:03:46.882, True, 1.989, 0.155947
2023/06/08 14:03:47.386, True, 1.658, 0.156405
2023/06/08 14:03:47.882, True, 1.684, 0.157397
2023/06/08 14:03:48.386, True, 1.992, 0.154040
2023/06/08 14:03:48.890, True, 1.656, 0.155337
2023/06/08 14:03:49.393, True, 1.658, 0.155871
2023/06/08 14:03:49.889, True, 2.022, 0.154726
2023/06/08 14:03:50.394, True, 1.658, 0.155489
2023/06/08 14:03:50.897, True, 1.658, 0.156481
2023/06/08 14:03:51.393, True, 1.685, 0.153964
2023/06/08 14:03:51.898, True, 1.658, 0.156405
2023/06/08 14:03:52.401, True, 1.657, 0.154574
2023/06/08 14:03:52.897, True, 1.348, 0.155108
2023/06/08 14:03:53.401, True, 1.990, 0.156176
2023/06/08 14:03:53.906, True, 1.658, 0.154879
2023/06/08 14:03:54.410, True, 1.658, 0.154116
2023/06/08 14:03:54.906, True, 1.685, 0.153429
2023/06/08 14:03:55.409, True, 1.658, 0.154345
2023/06/08 14:03:55.913, True, 1.659, 0.155337
2023/06/08 14:03:56.409, True, 2.021, 0.154879
2023/06/08 14:03:56.914, True, 1.658, 0.155413
2023/06/08 14:03:57.418, True, 1.661, 0.156634
2023/06/08 14:03:57.914, True, 1.683, 0.157855
2023/06/08 14:03:58.417, True, 1.657, 0.154040
2023/06/08 14:03:58.922, True, 1.990, 0.153506
2023/06/08 14:03:59.418, True, 1.686, 0.156481
2023/06/08 14:03:59.922, True, 1.657, 0.153658
2023/06/08 14:04:00.426, True, 1.659, 0.154879
2023/06/08 14:04:00.921, True, 1.683, 0.155947
2023/06/08 14:04:01.426, True, 1.658, 0.155642
2023/06/08 14:04:01.930, True, 1.990, 0.157397
2023/06/08 14:04:02.434, True, 1.659, 0.157778
2023/06/08 14:04:02.930, True, 1.347, 0.154192
2023/06/08 14:04:03.434, True, 1.989, 0.155795
2023/06/08 14:04:03.930, True, 1.685, 0.155337
2023/06/08 14:04:04.434, True, 1.660, 0.154116
2023/06/08 14:04:04.938, True, 1.656, 0.154574
2023/06/08 14:04:05.441, True, 1.659, 0.153735
2023/06/08 14:04:05.938, True, 1.683, 0.156710
2023/06/08 14:04:06.442, True, 1.660, 0.155947
2023/06/08 14:04:06.946, True, 1.657, 0.154574
2023/06/08 14:04:07.442, True, 1.686, 0.155337
2023/06/08 14:04:07.946, True, 1.657, 0.155642
2023/06/08 14:04:08.450, True, 1.658, 0.158541
2023/06/08 14:04:08.946, True, 1.688, 0.154421
2023/06/08 14:04:09.450, True, 1.986, 0.153735
2023/06/08 14:04:09.954, True, 1.658, 0.155413
2023/06/08 14:04:10.450, True, 1.686, 0.154498
2023/06/08 14:04:10.954, True, 1.659, 0.154192
2023/06/08 14:04:11.458, True, 1.987, 0.156176
2023/06/08 14:04:11.954, True, 1.349, 0.155413
2023/06/08 14:04:12.458, True, 1.658, 0.157168
2023/06/08 14:04:12.962, True, 1.657, 0.154803
2023/06/08 14:04:13.458, True, 1.685, 0.156176
2023/06/08 14:04:13.962, True, 1.658, 0.152819
2023/06/08 14:04:14.458, True, 1.684, 0.154803